カタログに戻る

CZ-2C DEB

運用中SSO
NORAD 67587·DEBRIS·🇨🇳 China

打ち上げ Jan 15, 2026 から Jiuquan Satellite Launch Center

Loading…

次のパス (今後24時間)

TLE

最新Source: Space-Track

元期: Sep 14, 2026, 19:42 UTC

1 67587U 26009D   26257.82112223  .00160733  00000-0  34664-2 0  9998
2 67587  97.6468 338.1070 0055940  99.0972 261.6610 15.42301585 36977

AllMySatでCZ-2C DEBをリアルタイム追跡

Download on the App Store